Home > Weather > Ajmer > Past weeks

Flag for India Weather for the Past 2 Weeks in Ajmer, Rajasthan, India

Now
95 °F

Haze.


Feels Like: 91 °F
Forecast: 78 / 99 °F
Wind: 3 mph from Northwest

Location: Jaipur / Sanganer

Current Time: May 4, 2016 at 10:07:23 PM

Latest Report: May 4, 2016 at 9:30 PM


Visibility: 2 mi

Pressure: 29.71 "Hg

Humidity: 19%

Dew Point: 46 °F

Location of AjmerLocation

Historic Weather in Ajmer — Graph

°F

Ajmer Temperature Yesterday

Maximum temperature yesterday: 104 °F (at 3:30 PM)
Minimum temperature yesterday: 88 °F (at 7:00 AM)
Average temperature yesterday: 96 °F

High & Low Weather Summary for the Past Weeks

 TemperatureHumidityPressure
High108 °F (May 1, 1:00 PM)32% (Apr 21, 6:30 AM)29.92 "Hg (Apr 21, 6:30 AM)
Low75 °F (Apr 24, 6:30 AM)2% (Apr 24, 11:00 AM)29.59 "Hg (Apr 22, 5:00 PM)
Average94 °F13%29.75 "Hg
* Reported Apr 19 7:30 PM — May 4 8:00 PM, Ajmer, Weather by CustomWeather, © 2016

Note: Actual official high and low records may vary slightly from our data, if they occured in-between our weather recording intervals... More about our weather records

Advertising

Ajmer Weather History for the Previous 24 Hours

Scroll right to see more
 ConditionsComfort  
Time TempWeatherWind HumidityBarometerVisibility
8:00 PM
Wed, May 4
97 °FHaze.2 mph17%29.68 "Hg2 mi
7:00 PM99 °FHaze.7 mph14%29.65 "Hg2 mi
6:30 PM100 °FScattered clouds.13 mph13%29.65 "Hg2 mi
6:00 PM100 °FScattered clouds.8 mph12%29.65 "Hg2 mi
4:00 PM102 °FScattered clouds.12 mph12%29.65 "Hg2 mi
2:00 PM104 °FLow level haze.15 mph9%29.71 "Hg1 mi
1:30 PM104 °FHaze.13 mph8%29.71 "Hg1 mi
1:00 PM100 °FHaze.6 mph10%29.71 "Hg1 mi
12:30 PM100 °FHaze.7 mph10%29.74 "Hg1 mi
11:30 AM99 °FHaze.12 mph13%29.77 "Hg1 mi
11:00 AM99 °FHaze.12 mph14%29.77 "Hg1 mi
10:30 AM97 °FHaze.12 mph19%29.77 "Hg1 mi
10:00 AM95 °FHaze.9 mph22%29.77 "Hg1 mi
9:30 AM93 °FHaze.7 mph23%29.77 "Hg1 mi
8:30 AM90 °FHaze.2 mph26%29.77 "Hg1 mi
7:30 AM86 °FHaze.1 mph27%29.74 "Hg1 mi
6:30 AM84 °FHaze.5 mph29%29.74 "Hg1 mi
6:00 AM86 °FHaze.2 mph27%29.71 "Hg1 mi
5:30 AM84 °FHaze.1 mph29%29.71 "Hg1 mi
2:30 AM86 °FHaze.3 mph24%29.71 "Hg1 mi
2:00 AM88 °FHaze.2 mph22%29.71 "Hg1 mi
11:30 PM
Tue, May 3
93 °FHaze.6 mph15%29.74 "Hg1 mi
11:00 PM91 °FHaze.No wind17%29.74 "Hg1 mi
10:30 PM93 °FHaze.1 mph15%29.74 "Hg1 mi
Weather by CustomWeather, © 2016

See weather overviewHow to use our weather pages